Location: Bergnershof
(48.9468°N, 10.9431°E)
Time: 22:39:50
(UTC+00:00)

Resurs 1-3 - Visible Passes

Search period start: 24 June 2021 00:00
Search period end: 04 July 2021 00:00
Orbit: 630 x 631 km, 97.9° (Epoch: 23 June)

Date Brightness Start Highest point End Pass type
(mag) Time Alt. Az. Time Alt. Az. Time Alt. Az.
24 Jun 5.1 20:02:06 10° SSW 20:06:09 36° W 20:10:14 10° NNW visible
25 Jun 5.8 20:23:28 10° SSW 20:26:59 23° W 20:30:32 10° NW visible
26 Jun 6.2 20:45:20 10° SW 20:47:53 15° W 20:50:28 10° NW visible
29 Jun 5.3 20:09:22 10° SSW 20:13:17 31° W 20:17:12 10° NNW visible
30 Jun 6.0 20:30:52 10° SW 20:34:07 20° W 20:37:24 10° NW visible
01 Jul 6.3 20:53:01 10° WSW 20:55:03 13° W 20:57:04 10° WNW visible
